CW0641 Weather Reports


Display with metric or nautical units.
time (UTC)temp
F
wind
direction
speed
MPH
gust
MPH
rain 1hr
in
rain 24hr
in
rain mn
in
humidity
%
barometer
mb
20260506150858 62 317 7.0 14.0 0.00 0.00 0.00 65 1014.9
20260506150527 62 10 6.0 14.0 0.00 0.00 0.00 65 1014.8
20260506145847 62 324 6.0 14.0 0.00 0.00 0.00 65 1014.8
20260506145545 62 322 5.0 14.0 0.00 0.00 0.00 64 1014.8
20260506144849 62 33 4.0 11.0 0.00 0.00 0.00 65 1014.7
20260506142849 63 0 6.0 12.0 0.00 0.00 0.00 63 1014.8
20260506142520 62 37 6.0 13.0 0.00 0.00 0.00 63 1014.8
20260506141517 63 5 6.0 14.0 0.00 0.00 0.00 63 1014.8
20260506140849 63 344 5.0 14.0 0.00 0.00 0.00 62 1014.8
20260506135848 63 355 6.0 13.0 0.00 0.00 0.00 62 1014.8
20260506135514 63 288 7.0 13.0 0.00 0.00 0.00 63 1014.9
20260506134846 63 327 6.0 11.0 0.00 0.00 0.00 63 1014.8
20260506134511 63 287 6.0 11.0 0.00 0.00 0.00 64 1014.9
20260506133846 63 324 7.0 13.0 0.00 0.00 0.00 64 1014.9
20260506132846 62 351 6.0 13.0 0.00 0.00 0.00 66 1014.9
20260506132511 62 327 6.0 12.0 0.00 0.00 0.00 68 1015.0
20260506131849 61 355 7.0 13.0 0.00 0.00 0.00 68 1015.1
20260506130846 61 266 6.0 15.0 0.00 0.00 0.00 69 1015.2
20260506130505 61 342 6.0 11.0 0.00 0.00 0.00 71 1015.2
20260506125847 60 288 6.0 11.0 0.00 0.00 0.00 69 1015.3
20260506125501 61 322 6.0 11.0 0.00 0.00 0.00 69 1015.3
20260506124848 61 333 6.0 11.0 0.00 0.00 0.00 68 1015.4
20260506124459 61 242 6.0 11.0 0.00 0.00 0.00 67 1015.7
20260506123846 62 282 6.0 11.0 0.00 0.00 0.00 66 1015.7
20260506123455 62 327 6.0 13.0 0.00 0.00 0.00 65 1015.4
20260506122839 63 293 6.0 13.0 0.00 0.00 0.00 64 1015.7
20260506121456 64 346 4.0 12.0 0.00 0.00 0.00 63 1015.8
20260506120839 64 257 5.0 11.0 0.00 0.00 0.00 65 1015.8
20260506120451 63 0 5.0 6.0 0.00 0.00 0.00 66 1015.8
20260506115841 62 290 6.0 10.0 0.00 0.00 0.00 66 1015.8
20260506115451 63 290 6.0 11.0 0.00 0.00 0.00 65 1015.8
20260506114829 63 265 6.0 12.0 0.00 0.00 0.00 64 1015.8
20260506113833 63 279 6.0 11.0 0.00 0.00 0.00 66 1015.8
20260506113445 62 246 5.0 12.0 0.00 0.00 0.00 66 1015.9
20260506112832 62 329 5.0 12.0 0.00 0.00 0.00 67 1015.9
20260506110834 61 322 6.0 12.0 0.00 0.00 0.00 69 1016.1
20260506110445 61 340 6.0 12.0 0.00 0.00 0.00 69 1016.0
20260506105828 61 297 5.0 10.0 0.00 0.00 0.00 70 1016.0
20260506105440 60 300 6.0 12.0 0.00 0.00 0.00 70 1016.0
20260506104818 60 327 7.0 12.0 0.00 0.00 0.00 70 1016.0
20260506104436 60 290 6.0 12.0 0.00 0.00 0.00 69 1016.0
20260506103435 60 318 7.0 12.0 0.00 0.00 0.00 70 1016.1
20260506102817 60 296 6.0 10.0 0.00 0.00 0.00 72 1016.2
20260506102436 60 298 5.0 11.0 0.00 0.00 0.00 72 1016.0
20260506101816 59 241 6.0 12.0 0.00 0.00 0.00 72 1016.2
20260506101431 59 294 6.0 12.0 0.00 0.00 0.00 73 1016.3
20260506100817 59 304 5.0 9.0 0.00 0.00 0.00 74 1016.4
20260506100428 59 227 5.0 9.0 0.00 0.00 0.00 73 1016.3
20260506095819 58 249 6.0 11.0 0.00 0.00 0.00 73 1016.4
20260506095428 58 268 6.0 11.0 0.00 0.00 0.00 73 1016.4
20260506094812 58 279 5.0 12.0 0.00 0.00 0.00 73 1016.4
20260506093813 58 331 4.0 10.0 0.00 0.00 0.00 76 1016.5
20260506093425 58 242 3.0 8.0 0.00 0.00 0.00 76 1016.5
20260506092809 58 263 4.0 8.0 0.00 0.00 0.00 77 1016.5
20260506092422 58 286 4.0 8.0 0.00 0.00 0.00 76 1016.5
20260506090419 57 286 5.0 9.0 0.00 0.00 0.00 75 1016.5
20260506085811 58 295 6.0 8.0 0.00 0.00 0.00 75 1016.6
20260506085418 58 299 3.0 5.0 0.00 0.00 0.00 75 1016.6
20260506084805 58 299 4.0 8.0 0.00 0.00 0.00 76 1016.6
20260506084417 57 267 3.0 9.0 0.00 0.00 0.00 77 1016.7
20260506083806 57 297 4.0 9.0 0.00 0.00 0.00 76 1016.7
20260506082806 57 279 5.0 10.0 0.00 0.00 0.00 77 1016.6
20260506081802 57 287 5.0 10.0 0.00 0.00 0.00 76 1016.7
20260506080800 57 331 3.0 9.0 0.00 0.00 0.00 76 1016.6
20260506080407 57 287 3.0 8.0 0.00 0.00 0.00 76 1016.5
20260506072744 57 275 5.0 10.0 0.00 0.00 0.00 76 1016.4
20260506071742 57 278 4.0 8.0 0.00 0.00 0.00 76 1016.5
20260506071355 57 296 3.0 7.0 0.00 0.00 0.00 75 1016.4
20260506070744 57 294 2.0 7.0 0.00 0.00 0.00 75 1016.4
20260506070353 57 283 2.0 5.0 0.00 0.00 0.00 75 1016.4
20260506062351 56 284 4.0 9.0 0.00 0.00 0.00 76 1016.1
20260506061742 57 263 4.0 11.0 0.00 0.00 0.00 76 1016.2
20260506060736 57 263 4.0 4.0 0.00 0.00 0.00 76 1016.1
20260506060346 57 263 4.0 9.0 0.00 0.00 0.00 77 1016.0
20260506051336 55 306 3.0 7.0 0.00 0.00 0.00 84 1015.8
20260506050725 54 323 3.0 8.0 0.00 0.00 0.00 84 1015.7
20260506044725 54 267 2.0 7.0 0.00 0.00 0.00 85 1015.3
20260506044330 54 319 2.0 8.0 0.00 0.00 0.00 85 1015.3
20260506043724 54 331 4.0 9.0 0.00 0.00 0.00 85 1015.3
20260506043331 54 316 5.0 11.0 0.00 0.00 0.00 85 1015.2
20260506041328 54 288 2.0 5.0 0.00 0.00 0.00 86 1015.0
20260506040710 54 239 2.0 5.0 0.00 0.00 0.00 87 1014.9
20260506040328 54 232 1.0 3.0 0.00 0.00 0.00 87 1014.9
20260506035711 53 208 1.0 5.0 0.00 0.00 0.00 87 1014.9
20260506035323 53 208 2.0 5.0 0.00 0.00 0.00 87 1014.9
20260506034709 53 209 1.0 5.0 0.00 0.00 0.00 88 1014.8
20260506034321 53 223 1.0 3.0 0.00 0.00 0.00 88 1014.7
20260506033705 53 229 1.0 4.0 0.00 0.00 0.00 88 1014.8
20260506032709 53 238 1.0 3.0 0.00 0.00 0.00 88 1014.6
20260506032325 53 238 1.0 3.0 0.00 0.00 0.00 88 1014.7
20260506031702 53 240 1.0 4.0 0.00 0.00 0.00 88 1014.6
20260506031317 53 246 1.0 4.0 0.00 0.00 0.00 88 1014.6
20260506030658 53 253 1.0 4.0 0.00 0.00 0.00 88 1014.5
20260506030315 53 263 2.0 4.0 0.00 0.00 0.00 88 1014.5
20260506025311 53 274 1.0 3.0 0.00 0.00 0.00 88 1014.5
20260506024650 53 274 1.0 4.0 0.00 0.00 0.00 88 1014.4
20260506024312 53 275 1.0 4.0 0.00 0.00 0.00 88 1014.4
20260506023651 53 277 1.0 3.0 0.00 0.00 0.00 88 1014.5
20260506023307 53 277 1.0 4.0 0.00 0.00 0.00 88 1014.4
20260506022647 53 277 1.0 4.0 0.00 0.00 0.00 89 1014.4
20260506022307 53 289 0.0 2.0 0.00 0.00 0.00 89 1014.5
20260506021643 53 289 0.0 2.0 0.00 0.00 0.00 89 1014.4
20260506021304 53 289 0.0 2.0 0.00 0.00 0.00 89 1014.4
20260506020634 53 289 0.0 2.0 0.00 0.00 0.00 89 1014.3
20260506020301 53 289 0.0 1.0 0.00 0.00 0.00 89 1014.3
20260506015258 53 289 0.0 1.0 0.00 0.00 0.00 89 1014.3
20260506014609 53 289 0.0 2.0 0.00 0.00 0.00 89 1014.3
20260506014258 53 289 0.0 2.0 0.00 0.00 0.00 89 1014.3
20260506013606 52 289 0.0 2.0 0.00 0.00 0.00 89 1014.3
20260506013254 52 289 0.0 2.0 0.00 0.00 0.00 89 1014.3
20260506012604 52 289 0.0 2.0 0.00 0.00 0.00 88 1014.3
20260506011606 52 289 0.0 2.0 0.00 0.00 0.00 88 1014.2
20260506010253 52 289 0.0 2.0 0.00 0.00 0.00 88 1014.3
20260506005603 52 289 0.0 2.0 0.00 0.00 0.00 88 1014.2
20260506005248 52 289 0.0 3.0 0.00 0.00 0.00 89 1014.3
20260506003600 53 289 1.0 4.0 0.00 0.00 0.00 89 1014.3
20260506003248 53 288 1.0 4.0 0.00 0.00 0.00 88 1014.3
20260506002559 53 286 1.0 3.0 0.00 0.00 0.00 88 1014.4
20260506002244 53 302 1.0 3.0 0.00 0.00 0.00 88 1014.4
20260506001243 53 250 2.0 4.0 0.00 0.00 0.00 88 1014.4
20260506000242 53 257 2.0 6.0 0.00 0.00 0.00 88 1014.4
20260505235241 53 283 2.0 4.0 0.00 0.00 0.00 88 1014.5
20260505234539 53 296 1.0 4.0 0.00 0.00 0.00 88 1014.5
20260505234236 53 296 2.0 5.0 0.00 0.00 0.00 88 1014.5
20260505233539 53 296 2.0 5.0 0.00 0.00 0.00 88 1014.5
20260505233234 53 296 2.0 5.0 0.00 0.00 0.00 88 1014.5
20260505232539 53 355 2.0 6.0 0.00 0.00 0.00 88 1014.6
20260505231534 53 288 2.0 6.0 0.00 0.00 0.00 88 1014.7
20260505231231 53 284 2.0 5.0 0.00 0.00 0.00 88 1014.7
20260505230533 53 285 2.0 5.0 0.00 0.00 0.00 88 1014.7
20260505230226 53 327 2.0 5.0 0.00 0.00 0.00 88 1014.7
20260505225532 53 271 1.0 4.0 0.00 0.00 0.00 88 1014.8
20260505224520 53 304 2.0 7.0 0.00 0.00 0.00 88 1014.8
20260505224232 53 305 2.0 7.0 0.00 0.00 0.00 88 1014.8
20260505223517 53 294 2.0 5.0 0.00 0.00 0.00 88 1014.8
20260505223223 53 309 2.0 6.0 0.00 0.00 0.00 88 1014.8
20260505222510 53 277 2.0 6.0 0.00 0.00 0.00 88 1014.9
20260505222222 53 317 2.0 5.0 0.00 0.00 0.00 88 1014.9
20260505221220 53 273 2.0 6.0 0.00 0.00 0.00 87 1014.9
20260505220508 53 330 1.0 5.0 0.00 0.00 0.00 87 1014.8
20260505220218 53 265 1.0 3.0 0.00 0.00 0.00 87 1014.9
20260505215215 53 286 1.0 4.0 0.00 0.00 0.00 87 1015.0
20260505214501 53 288 1.0 4.0 0.00 0.00 0.00 87 1015.0
20260505214215 53 288 1.0 4.0 0.00 0.00 0.00 87 1015.0
20260505213500 53 275 1.0 4.0 0.00 0.00 0.00 87 1015.0
20260505213214 53 271 2.0 6.0 0.00 0.00 0.00 87 1015.0
20260505212502 53 297 3.0 8.0 0.00 0.00 0.00 87 1015.1
20260505212213 53 332 4.0 8.0 0.00 0.00 0.00 87 1015.1
20260505210457 53 309 3.0 8.0 0.00 0.00 0.00 86 1015.3
20260505205455 53 290 6.0 11.0 0.00 0.00 0.00 86 1015.3
20260505205207 53 314 6.0 11.0 0.00 0.00 0.00 86 1015.3
20260505204456 53 297 5.0 10.0 0.00 0.00 0.00 86 1015.3
20260505204200 53 324 4.0 10.0 0.00 0.00 0.00 86 1015.3
20260505203453 53 339 4.0 9.0 0.00 0.00 0.00 85 1015.3
20260505203158 53 293 5.0 10.0 0.00 0.00 0.00 86 1015.3
20260505202455 53 290 6.0 11.0 0.00 0.00 0.00 85 1015.3
20260505201455 53 294 3.0 10.0 0.00 0.00 0.00 85 1015.2
20260505200446 53 269 2.0 8.0 0.00 0.00 0.00 85 1015.2
20260505200151 52 334 3.0 8.0 0.00 0.00 0.00 85 1015.1
20260505195446 52 327 3.0 8.0 0.00 0.00 0.00 85 1015.1
20260505194444 52 250 5.0 13.0 0.00 0.00 0.00 85 1014.9
20260505194150 52 332 6.0 13.0 0.00 0.00 0.00 85 1015.0
20260505193146 52 344 7.0 14.0 0.00 0.00 0.00 84 1015.0
20260505192439 52 288 7.0 14.0 0.00 0.00 0.00 84 1015.0
20260505192145 52 334 7.0 17.0 0.00 0.00 0.00 84 1014.8
20260505191430 53 340 7.0 17.0 0.00 0.00 0.00 84 1014.9
20260505191143 52 298 7.0 14.0 0.00 0.00 0.00 84 1014.9
20260505190431 52 333 6.0 15.0 0.00 0.00 0.00 84 1014.9
20260505190141 52 282 6.0 15.0 0.00 0.00 0.00 84 1015.0
20260505185431 52 284 5.0 14.0 0.00 0.00 0.00 84 1015.0
20260505185140 52 259 4.0 10.0 0.00 0.00 0.00 84 1014.9
20260505184430 52 333 4.0 10.0 0.00 0.00 0.00 84 1014.9
20260505183428 52 282 4.0 10.0 0.00 0.00 0.00 84 1014.8
20260505183136 52 327 5.0 15.0 0.00 0.00 0.00 84 1014.6
20260505182134 52 269 6.0 14.0 0.00 0.00 0.00 83 1014.4
20260505181419 52 273 8.0 20.0 0.00 0.00 0.00 83 1014.3
20260505181130 52 317 12.0 23.0 0.00 0.00 0.00 83 1014.0
20260505180128 52 296 14.0 21.0 0.00 0.00 0.00 83 1013.9
20260505175413 52 316 13.0 21.0 0.00 0.00 0.00 83 1014.0
20260505175128 52 294 12.0 19.0 0.00 0.00 0.00 83 1014.3
20260505174416 52 285 11.0 19.0 0.00 0.00 0.00 83 1014.3
20260505174125 52 340 11.0 17.0 0.00 0.00 0.00 83 1014.4
20260505173414 52 281 10.0 17.0 0.00 0.00 0.00 84 1014.5
20260505173122 52 329 9.0 16.0 0.00 0.00 0.00 84 1014.6
20260505172414 53 355 7.0 16.0 0.00 0.00 0.00 84 1014.6
20260505172119 53 343 5.0 16.0 0.00 0.00 0.00 85 1014.7
20260505171419 53 281 5.0 15.0 0.00 0.00 0.00 84 1014.4
20260505171121 53 334 8.0 19.0 0.00 0.00 0.00 84 1013.9
20260505170413 53 16 10.0 24.0 0.00 0.00 0.00 84 1013.5
20260505170120 53 296 13.0 26.0 0.00 0.00 0.00 84 1013.0
20260505165414 53 281 15.0 26.0 0.00 0.00 0.00 83 1012.9
20260505164413 54 336 16.0 30.0 0.00 0.00 0.00 82 1012.6
20260505164113 54 318 16.0 30.0 0.00 0.00 0.00 82 1012.6
20260505163113 54 326 16.0 29.0 0.00 0.00 0.00 80 1012.5
20260505162111 55 284 15.0 25.0 0.00 0.00 0.00 78 1013.1
20260505161413 55 307 13.0 25.0 0.00 0.00 0.00 76 1013.4
20260505160411 55 327 12.0 24.0 0.00 0.00 0.00 74 1013.8
20260505160109 55 324 12.0 20.0 0.00 0.00 0.00 73 1014.0
20260505153105 57 289 11.0 19.0 0.00 0.00 0.00 68 1014.2
20260505152412 57 342 11.0 19.0 0.00 0.00 0.00 67 1014.0
20260505152103 57 304 9.0 17.0 0.00 0.00 0.00 65 1014.0
20260505151410 58 299 8.0 17.0 0.00 0.00 0.00 64 1013.9